DW4852 Weather Reports


Display with metric or nautical units.
time (UTC)temp
F
wind
direction
speed
MPH
gust
MPH
rain 1hr
in
rain 24hr
in
rain mn
in
humidity
%
barometer
mb
20180919200825 92 15 0.0 1.0 0.00 0.00 0.00 48 1013.3
20180919195321 91 173 0.0 1.0 0.00 0.00 0.00 49 1013.4
20180919193819 90 149 0.0 3.0 0.00 0.00 0.00 50 1013.4
20180919192322 90 78 0.0 3.0 0.00 0.00 0.00 50 1013.3
20180919190823 89 260 0.0 3.0 0.00 0.00 0.00 51 1013.5
20180919185320 90 181 0.0 1.0 0.00 0.00 0.00 51 1013.7
20180919183817 88 131 0.0 1.0 0.00 0.00 0.00 56 1013.8
20180919182312 87 265 0.0 4.0 0.00 0.00 0.00 57 1014.0
20180919180812 89 84 0.0 1.0 0.00 0.00 0.00 57 1013.9
20180919175310 87 142 0.0 1.0 0.00 0.00 0.00 58 1014.2
20180919172307 86 207 0.0 1.0 0.00 0.00 0.00 61 1014.4
20180919170804 85 186 0.0 1.0 0.00 0.00 0.00 62 1014.6
20180919165305 85 176 0.0 3.0 0.00 0.00 0.00 65 1014.8
20180919163802 85 359 0.0 0.0 0.00 0.00 0.00 66 1014.7
20180919162256 83 207 0.0 2.0 0.00 0.00 0.00 67 1015.1
20180919160755 83 123 0.0 1.0 0.00 0.00 0.00 69 1015.0
20180919155254 82 161 0.0 0.0 0.00 0.00 0.00 73 1015.1
20180919153749 80 347 0.0 0.0 0.00 0.00 0.00 75 1015.0
20180919152249 79 8 0.0 1.0 0.00 0.00 0.00 76 1015.0
20180919150743 78 60 0.0 1.0 0.00 0.00 0.00 79 1015.0
20180919145241 77 30 0.0 1.0 0.00 0.00 0.00 80 1014.8
20180919143736 76 40 0.0 1.0 0.00 0.00 0.00 81 1014.7
20180919142236 75 22 0.0 1.0 0.00 0.00 0.00 83 1014.8
20180919140730 74 27 0.0 0.0 0.00 0.00 0.00 84 1014.8
20180919135227 73 12 0.0 1.0 0.00 0.00 0.00 87 1014.7
20180919133729 72 23 0.0 0.0 0.00 0.00 0.00 88 1014.7
20180919132223 71 42 0.0 1.0 0.00 0.00 0.00 90 1014.6
20180919130721 69 349 0.0 2.0 0.00 0.00 0.00 92 1014.5
20180919125223 68 328 0.0 0.0 0.00 0.00 0.00 93 1014.4
20180919123717 67 41 0.0 1.0 0.00 0.00 0.00 94 1014.2
20180919122216 67 28 0.0 0.0 0.00 0.00 0.00 95 1014.1
20180919120716 67 15 0.0 0.0 0.00 0.00 0.00 95 1014.1
20180919115216 67 350 0.0 0.0 0.00 0.00 0.00 94 1014.2
20180919113711 67 350 0.0 0.0 0.00 0.00 0.00 94 1014.2
20180919112210 67 9 0.0 0.0 0.00 0.00 0.00 94 1014.1
20180919110710 67 9 0.0 0.0 0.00 0.00 0.00 94 1013.9
20180919105207 68 5 0.0 0.0 0.00 0.00 0.00 93 1013.8
20180919103708 68 18 0.0 0.0 0.00 0.00 0.00 94 1013.7
20180919102204 68 281 0.0 0.0 0.00 0.00 0.00 93 1013.8
20180919100702 68 11 0.0 0.0 0.00 0.00 0.00 93 1013.6
20180919095203 69 25 0.0 0.0 0.00 0.00 0.00 93 1013.6
20180919093701 69 255 0.0 0.0 0.00 0.00 0.00 93 1013.6
20180919092159 69 11 0.0 0.0 0.00 0.00 0.00 93 1013.3
20180919090656 69 3 0.0 0.0 0.00 0.00 0.00 93 1013.0
20180919085157 69 309 0.0 0.0 0.00 0.00 0.00 92 1013.1
20180919083654 69 8 0.0 0.0 0.00 0.00 0.00 92 1013.0
20180919082153 69 8 0.0 0.0 0.00 0.00 0.00 92 1012.9
20180919080651 70 6 0.0 0.0 0.00 0.00 0.00 91 1012.8
20180919075149 70 6 0.0 0.0 0.00 0.00 0.00 91 1012.6
20180919073649 70 148 0.0 1.0 0.00 0.00 0.00 91 1012.7
20180919072146 71 305 0.0 0.0 0.00 0.00 0.00 90 1013.2
20180919070645 71 9 0.0 0.0 0.00 0.00 0.00 88 1013.1
20180919065146 71 312 0.0 0.0 0.00 0.00 0.00 88 1012.7
20180919063642 71 341 0.0 1.0 0.00 0.00 0.00 87 1012.6
20180919062140 71 171 0.0 0.0 0.00 0.00 0.00 86 1012.5
20180919060744 72 343 0.0 1.0 0.00 0.00 0.00 86 1012.8
20180919055138 72 359 0.0 0.0 0.00 0.00 0.00 85 1012.9
20180919053635 72 11 0.0 0.0 0.00 0.00 0.00 85 1012.7
20180919052136 72 25 0.0 1.0 0.00 0.00 0.00 85 1012.4
20180919050634 72 342 0.0 1.0 0.00 0.00 0.00 85 1012.6
20180919045133 72 328 0.0 1.0 0.00 0.00 0.00 85 1012.6
20180919043631 72 167 0.0 0.0 0.00 0.00 0.00 85 1012.5
20180919042128 73 204 0.0 0.0 0.00 0.00 0.00 84 1012.5
20180919040627 73 226 0.0 0.0 0.00 0.00 0.00 83 1012.4
20180919035125 73 150 0.0 0.0 0.00 0.00 0.00 83 1012.2
20180919033626 73 222 0.0 0.0 0.00 0.00 0.00 83 1012.1
20180919032124 73 224 0.0 1.0 0.00 0.00 0.00 83 1012.0
20180919030623 73 217 0.0 0.0 0.00 0.00 0.00 83 1011.8
20180919025125 73 218 0.0 0.0 0.00 0.00 0.00 82 1011.8
20180919023623 73 218 0.0 0.0 0.00 0.00 0.00 82 1011.7
20180919022123 74 218 0.0 0.0 0.00 0.00 0.00 81 1012.0
20180919020625 75 218 0.0 0.0 0.00 0.00 0.00 79 1011.8
20180919015239 75 218 0.0 0.0 0.00 0.00 0.00 77 1011.6
20180919013618 76 219 0.0 0.0 0.00 0.00 0.00 77 1011.5
20180919012118 76 210 0.0 0.0 0.00 0.00 0.00 77 1011.2
20180919010620 76 206 0.0 0.0 0.00 0.00 0.00 76 1011.3
20180919003614 77 206 0.0 0.0 0.00 0.00 0.00 75 1011.2
20180919002116 77 207 0.0 0.0 0.00 0.00 0.00 74 1011.3
20180919000616 78 342 0.0 0.0 0.00 0.00 0.00 73 1011.3
20180918235115 79 19 0.0 1.0 0.00 0.00 0.00 71 1011.2
20180918233615 81 328 0.0 0.0 0.00 0.00 0.00 69 1011.1
20180918232110 82 305 0.0 1.0 0.00 0.00 0.00 67 1011.0
20180918230611 84 30 0.0 1.0 0.00 0.00 0.00 62 1010.8
20180918225110 84 315 0.0 0.0 0.00 0.00 0.00 59 1010.6
20180918223612 84 337 0.0 0.0 0.00 0.00 0.00 59 1010.5
20180918222109 85 10 0.0 0.0 0.00 0.00 0.00 58 1010.6
20180918220610 85 345 0.0 0.0 0.00 0.00 0.00 57 1010.6
20180918215107 86 56 0.0 2.0 0.00 0.00 0.00 55 1010.5
20180918213609 86 293 0.0 1.0 0.00 0.00 0.00 55 1010.5
20180918212108 87 295 0.0 2.0 0.00 0.00 0.00 53 1010.4